カタログに戻る

TITAN 4B DEB

運用中LEO
NORAD 40529·DEBRIS·🇺🇸 United States

打ち上げ Aug 17, 2000 から Vandenberg Space Force Base

Loading…

次のパス (今後24時間)

TLE

最新Source: Space-Track

元期: Sep 14, 2026, 13:39 UTC

1 40529U 00047F   26257.56917529  .00000282  00000-0  34993-4 0  9991
2 40529  67.9955 325.8422 0060187 230.6784 128.9015 14.96218695626114

AllMySatでTITAN 4B DEBをリアルタイム追跡

Download on the App Store